Location: *
(13.2257°S, 48.7193°W)
Time: 23:23:51
(UTC+00:00)

SL-16 R/B - Pass Details

Date: 19 May 2026
Orbit: 984 x 1007 km, 99.8° (Epoch: 7 June)

Event Time Altitude Azimuth Distance (km) Brightness Sun altitude
Rises 07:09:07 0° 150° (SSE) 3,743 5.7 -32.9°
Reaches altitude 10° 07:11:53 10° 141° (SE) 2,790 5.1 -32.3°
Maximum altitude 07:17:25 33° 78° (ENE) 1,629 4.1 -31.0°
Drops below altitude 10° 07:22:54 10° 16° (NNE) 2,770 5.2 -29.7°
Sets 07:25:37 0° 7° (N) 3,712 5.8 -29.0°
